Terminal Aerodrome Forecast
Issued by NWS Charleston, WV

Current Version | Previous Version | Text Only | Print | Product List | Glossary Off
Versions: 1 2 3 4 5 6 7 8 9 10 11 12 13 14 15 16 17 18 19 20 21 22 23 24 25 26

000
FTUS41 KRLX 160258 AAA
TAFHTS
TAF AMD
KHTS 160258Z 1603/1624 30004KT P6SM OVC045
     FM160500 24006KT P6SM OVC023
     FM160700 25005KT 4SM -SN OVC017
     FM160900 26005KT 3SM -SN OVC013
     FM161000 27005KT 1 1/2SM -SHSN OVC011
     FM161600 27005KT P6SM OVC015=

USA.gov is the U.S. government's official web portal to all federal, state and local government web resources and services.